Location: *
(13.0000°N, 151.6000°E)
Time: 04:23:29
(UTC+00:00)

Cosmos 1867 - Pass Details

Date: 01 April 2020
Orbit: 778 x 798 km, 65.0° (Epoch: 24 May)

Event Time Altitude Azimuth Distance (km) Brightness Sun altitude
Exits shadow 19:10:58 - 228° (SW) 2,605 5.8 -10.1°
Reaches altitude 10° 19:11:46 10° 231° (SW) 2,335 5.5 -9.9°
Maximum altitude 19:16:33 33° 295° (WNW) 1,295 4.3 -8.7°
Drops below altitude 10° 19:21:23 10° 358° (N) 2,347 6.1 -7.6°
Sets 19:24:02 0° 8° (N) 3,279 7.0 -6.9°
